Regional Weather Roundup
Issued by NWS

Home | Current Version | Previous Version | Text Only | Print | Product List | Glossary Off
Versions: 1 2 3 4 5 6 7 8 9 10 11 12 13 14 15 16 17 18 19 20 21 22 23 24 25 26 27 28 29 30 31 32 33 34 35 36 37 38 39 40 41 42 43 44 45 46 47 48 49 50

000
ASUS43 KOAX 272110
RWRNE

WEATHER ROUNDUP FOR NEBRASKA
NATIONAL WEATHER SERVICE OMAHA NE
400 PM CDT MON MAR 27 2017

NOTES: SATELLITE DATA IS BEING USED TO AUGMENT CLOUD COVER ABOVE
       12000 FEET.
       "FAIR" INDICATES FEW OR NO CLOUDS BELOW 12,000 FEET WITH NO
       SIGNIFICANT WEATHER AND/OR OBSTRUCTIONS TO VISIBILITY.

  * THESE STATIONS DO NOT REPORT WEATHER SUCH AS RAIN...SNOW OR FOG.

NEZ001>004-019>022-054>056-272200-
NEBRASKA PANHANDLE

CITY           SKY/WX    TMP DP  RH WIND       PRES   REMARKS
SCOTTSBLUFF    MOSUNNY   64  23  21 W5        29.80F
ALLIANCE       CLOUDY    63  28  26 W14       29.81F
CHADRON        SUNNY     65  27  23 CALM      29.79F
KIMBALL        CLOUDY    59  34  38 SW9       29.85F
SIDNEY         MOSUNNY   63  31  30 SW9       29.84F
$$

NEZ057>060-069>072-079>082-272200-
SOUTHWEST NEBRASKA

CITY           SKY/WX    TMP DP  RH WIND       PRES   REMARKS
NORTH PLATTE   SUNNY     64  37  36 SE5       29.86F
IMPERIAL       SUNNY     64  37  36 VRB7      29.86F
LEXINGTON      MOSUNNY   56  44  62 SE8       29.91F
MCCOOK         MOSUNNY   65  42  43 SE8       29.87F
OGALLALA       MOSUNNY   65  35  32 S5        29.84F
$$

NEZ005>010-023>029-035>040-094-272200-
NORTH CENTRAL NEBRASKA

CITY           SKY/WX    TMP DP  RH WIND       PRES   REMARKS
VALENTINE      SUNNY     60  37  42 S7        29.87F
AINSWORTH      SUNNY     59  43  53 S7        29.88F
BROKEN BOW     SUNNY     56  43  61 MISG      29.91S
O`NEILL        SUNNY     59  38  46 SE7       29.91F
ORD            SUNNY     55  41  59 W5        29.91F
THEDFORD       SUNNY     62  40  44 SE8       29.87F
$$

NEZ041-046>049-061>064-073>077-083>087-272200-
SOUTH CENTRAL NEBRASKA

CITY           SKY/WX    TMP DP  RH WIND       PRES   REMARKS
GRAND ISLAND   MOSUNNY   54  42  64 NW3       29.95F
AURORA         CLOUDY    53  43  69 W3        29.95F
HASTINGS       CLOUDY    50  42  74 CALM      29.95F
HEBRON         CLOUDY    49  43  80 CALM      29.96F
HOLDREGE       SUNNY     58  42  55 E6        29.91F
KEARNEY *      CLOUDY    54  41  62 CALM      29.95F
YORK           CLOUDY    50  41  71 NE3       29.96S
$$

NEZ011>018-030>034-042>045-272200-
NORTHEAST NEBRASKA

CITY           SKY/WX    TMP DP  RH WIND       PRES   REMARKS
NORFOLK        SUNNY     58  37  45 NE7       29.92F
ALBION         SUNNY     57  37  47 S3        29.93F
BLAIR          CLOUDY    50  41  71 E5        29.95S
FREMONT        CLOUDY    51  41  69 N3        29.96S
TEKAMAH        PTSUNNY   53  41  63 VRB3      29.95F
WAYNE          SUNNY     57  39  51 NE6       29.93F
$$

NEZ050>053-065>068-078-088>093-272200-
SOUTHEAST NEBRASKA

CITY           SKY/WX    TMP DP  RH WIND       PRES   REMARKS
LINCOLN        CLOUDY    54  40  59 MISG      29.97S
OMAHA EPPLEY   CLOUDY    51  40  65 NE6       29.95F
BEATRICE       CLOUDY    53  44  71 N5        29.96S
FALLS CITY     CLOUDY    54  44  69 NE8       29.94S
NEBRASKA CITY  CLOUDY    50  40  69 NE10      29.95S
PLATTSMOUTH    CLOUDY    49  38  65 NE6       29.95F
$$

NEZ044-045-051>053-067-272200-
OMAHA AREA

CITY           SKY/WX    TMP DP  RH WIND       PRES   REMARKS
OMAHA EPPLEY   CLOUDY    51  40  65 NE6       29.95F
BLAIR          CLOUDY    50  41  71 E5        29.95S
FREMONT        CLOUDY    51  41  69 N3        29.96S
MILLARD        CLOUDY    52  42  70 NE5       29.96S
OFFUTT AFB     CLOUDY    50  40  68 N5        29.95F
PLATTSMOUTH    CLOUDY    49  38  65 NE6       29.95F
WAHOO          CLOUDY    50  40  67 NE3       29.96S
$$



USA.gov is the U.S. government's official web portal to all federal, state and local government web resources and services.